Ryouei Maru — JL6703 — position and weather

sailwx.info

Track history (hours):
 
Tides and Currents Weather Stations Pressure Air Temp Water Temp Dewpoint Dewpoint Depression Visibility Wind Speed Wind Dir Waves Ship Positions

Ryouei Maru

Last reported at 2014-Sep-25 14:33 UTC. Time now 2014-Oct-01 16:21 UTC.
Position N 34°03' E 134°59'.

Length 95 m; draft 5 m.

Type: Cargo ship. MMSI: 431501749.

Date/timePositionNaut miles runAvg speedWind from/ knotsBaromVisibWave heightAir tempDewpointWater temp
2014-Sep-25 14:33N 34°03' E 134°59'1614.1
2014-Sep-25 13:27N 34°18' E 134°58'1112.8
2014-Sep-25 12:33N 34°27' E 135°06'1413.8
2014-Sep-25 11:33N 34°36' E 135°19'5 4.7
2014-Sep-25 10:28N 34°37' E 135°26'0 0.1
2014-Sep-25 09:33N 34°37' E 135°26'0 0.0
2014-Sep-25 06:33N 34°37' E 135°26'0 0.0
2014-Sep-25 05:33N 34°37' E 135°26'0 0.0
2014-Sep-25 04:33N 34°37' E 135°26'0 0.0
2014-Sep-25 03:27N 34°37' E 135°26'0 0.0
2014-Sep-25 02:15N 34°37' E 135°26'0 0.0
2014-Sep-25 01:33N 34°37' E 135°26'0 0.0
2014-Sep-25 00:33N 34°37' E 135°26'0 0.0
2014-Sep-24 23:33N 34°37' E 135°26'0 0.0
2014-Sep-24 22:30N 34°37' E 135°26'6 6.6
2014-Sep-24 21:33N 34°35' E 135°18'1 0.8
2014-Sep-24 20:29N 34°35' E 135°17'0 0.1
2014-Sep-24 19:33N 34°35' E 135°17'1111.3
2014-Sep-24 18:33N 34°26' E 135°09'1211.9
2014-Sep-24 17:31N 34°17' E 134°59'1212.1
2014-Sep-24 16:33N 34°05' E 135°00'  
2014-Sep-19 11:05N 34°06' E 134°59'713.8
2014-Sep-19 10:33N 34°14' E 134°59'1212.0
2014-Sep-19 09:34N 34°25' E 135°03'1413.4
2014-Sep-19 08:33N 34°34' E 135°16'9 8.2
2014-Sep-19 07:30N 34°37' E 135°26'0 0.0
2014-Sep-19 06:23N 34°37' E 135°26'0 0.0
2014-Sep-19 02:23N 34°37' E 135°26'0 0.1
2014-Sep-19 01:29N 34°37' E 135°26'0 0.0
2014-Sep-18 23:29N 34°37' E 135°26'0 0.0
2014-Sep-18 22:20N 34°37' E 135°26'4 5.7
2014-Sep-18 21:33N 34°36' E 135°20'2 1.9
2014-Sep-18 20:27N 34°35' E 135°18'0 0.0
2014-Sep-18 19:33N 34°35' E 135°18'0 0.0
2014-Sep-18 18:27N 34°35' E 135°18'0 0.0
2014-Sep-18 17:26N 34°35' E 135°18'0 0.0
2014-Sep-18 16:29N 34°35' E 135°18'1011.2
2014-Sep-18 15:33N 34°27' E 135°10'1211.8
2014-Sep-18 14:30N 34°18' E 135°00'1311.4
2014-Sep-18 13:19N 34°04' E 135°00'22911.0
2014-Sep-17 16:25N 34°59' E 139°31'1214.1
2014-Sep-17 15:33N 35°07' E 139°42'1211.6
2014-Sep-17 14:33N 35°18' E 139°44'1111.2
2014-Sep-17 13:33N 35°28' E 139°50'9 9.0
2014-Sep-17 12:33N 35°37' E 139°47'0 0.1
2014-Sep-17 11:31N 35°37' E 139°47'0 0.0
2014-Sep-17 10:10N 35°37' E 139°47'0 0.0
2014-Sep-17 09:28N 35°37' E 139°47'0 0.0
2014-Sep-17 08:22N 35°37' E 139°47'0 0.0
2014-Sep-17 07:28N 35°37' E 139°47'0 0.0
2014-Sep-17 06:28N 35°37' E 139°47'0 0.0
2014-Sep-17 05:31N 35°37' E 139°47'0 0.0
2014-Sep-17 04:28N 35°37' E 139°47'0 0.0
2014-Sep-17 03:25N 35°37' E 139°47'0 0.0
2014-Sep-17 02:28N 35°37' E 139°47'0 0.0
2014-Sep-17 01:22N 35°37' E 139°47'0 0.0
2014-Sep-17 00:28N 35°37' E 139°47'0 0.0
2014-Sep-16 23:31N 35°37' E 139°47'0 0.0
2014-Sep-16 22:31N 35°37' E 139°47'2 1.8
2014-Sep-16 21:33N 35°37' E 139°49'8 7.6
2014-Sep-16 20:33N 35°30' E 139°53'1211.5
2014-Sep-16 19:33N 35°20' E 139°44'1111.4
2014-Sep-16 18:33N 35°09' E 139°47'1311.5
2014-Sep-16 17:26N 34°56' E 139°44'1111.4
2014-Sep-16 16:28N 34°52' E 139°57'1011.2
2014-Sep-16 15:33N 34°57' E 140°07'2310.4
2014-Sep-16 13:23N 35°10' E 140°30'2612.5
2014-Sep-16 11:19N 35°31' E 140°49'  
Track history (hours):
 
Tides and Currents Weather Stations Pressure Air Temp Water Temp Dewpoint Dewpoint Depression Visibility Wind Speed Wind Dir Waves Ship Positions

Ryouei Maru

Last reported at 2014-Sep-25 14:33 UTC. Time now 2014-Oct-01 16:21 UTC.
Position N 34°03' E 134°59'.

Length 95 m; draft 5 m.

Type: Cargo ship. MMSI: 431501749.

Date/timePositionNaut miles runAvg speedWind from/ knotsBaromVisibWave heightAir tempDewpointWater temp
2014-Sep-25 14:33N 34°03' E 134°59'1614.1
2014-Sep-25 13:27N 34°18' E 134°58'1112.8
2014-Sep-25 12:33N 34°27' E 135°06'1413.8
2014-Sep-25 11:33N 34°36' E 135°19'5 4.7
2014-Sep-25 10:28N 34°37' E 135°26'0 0.1
2014-Sep-25 09:33N 34°37' E 135°26'0 0.0
2014-Sep-25 06:33N 34°37' E 135°26'0 0.0
2014-Sep-25 05:33N 34°37' E 135°26'0 0.0
2014-Sep-25 04:33N 34°37' E 135°26'0 0.0
2014-Sep-25 03:27N 34°37' E 135°26'0 0.0
2014-Sep-25 02:15N 34°37' E 135°26'0 0.0
2014-Sep-25 01:33N 34°37' E 135°26'0 0.0
2014-Sep-25 00:33N 34°37' E 135°26'0 0.0
2014-Sep-24 23:33N 34°37' E 135°26'0 0.0
2014-Sep-24 22:30N 34°37' E 135°26'6 6.6
2014-Sep-24 21:33N 34°35' E 135°18'1 0.8
2014-Sep-24 20:29N 34°35' E 135°17'0 0.1
2014-Sep-24 19:33N 34°35' E 135°17'1111.3
2014-Sep-24 18:33N 34°26' E 135°09'1211.9
2014-Sep-24 17:31N 34°17' E 134°59'1212.1
2014-Sep-24 16:33N 34°05' E 135°00'  
2014-Sep-19 11:05N 34°06' E 134°59'713.8
2014-Sep-19 10:33N 34°14' E 134°59'1212.0
2014-Sep-19 09:34N 34°25' E 135°03'1413.4
2014-Sep-19 08:33N 34°34' E 135°16'9 8.2
2014-Sep-19 07:30N 34°37' E 135°26'0 0.0
2014-Sep-19 06:23N 34°37' E 135°26'0 0.0
2014-Sep-19 02:23N 34°37' E 135°26'0 0.1
2014-Sep-19 01:29N 34°37' E 135°26'0 0.0
2014-Sep-18 23:29N 34°37' E 135°26'0 0.0
2014-Sep-18 22:20N 34°37' E 135°26'4 5.7
2014-Sep-18 21:33N 34°36' E 135°20'2 1.9
2014-Sep-18 20:27N 34°35' E 135°18'0 0.0
2014-Sep-18 19:33N 34°35' E 135°18'0 0.0
2014-Sep-18 18:27N 34°35' E 135°18'0 0.0
2014-Sep-18 17:26N 34°35' E 135°18'0 0.0
2014-Sep-18 16:29N 34°35' E 135°18'1011.2
2014-Sep-18 15:33N 34°27' E 135°10'1211.8
2014-Sep-18 14:30N 34°18' E 135°00'1311.4
2014-Sep-18 13:19N 34°04' E 135°00'22911.0
2014-Sep-17 16:25N 34°59' E 139°31'1214.1
2014-Sep-17 15:33N 35°07' E 139°42'1211.6
2014-Sep-17 14:33N 35°18' E 139°44'1111.2
2014-Sep-17 13:33N 35°28' E 139°50'9 9.0
2014-Sep-17 12:33N 35°37' E 139°47'0 0.1
2014-Sep-17 11:31N 35°37' E 139°47'0 0.0
2014-Sep-17 10:10N 35°37' E 139°47'0 0.0
2014-Sep-17 09:28N 35°37' E 139°47'0 0.0
2014-Sep-17 08:22N 35°37' E 139°47'0 0.0
2014-Sep-17 07:28N 35°37' E 139°47'0 0.0
2014-Sep-17 06:28N 35°37' E 139°47'0 0.0
2014-Sep-17 05:31N 35°37' E 139°47'0 0.0
2014-Sep-17 04:28N 35°37' E 139°47'0 0.0
2014-Sep-17 03:25N 35°37' E 139°47'0 0.0
2014-Sep-17 02:28N 35°37' E 139°47'0 0.0
2014-Sep-17 01:22N 35°37' E 139°47'0 0.0
2014-Sep-17 00:28N 35°37' E 139°47'0 0.0
2014-Sep-16 23:31N 35°37' E 139°47'0 0.0
2014-Sep-16 22:31N 35°37' E 139°47'2 1.8
2014-Sep-16 21:33N 35°37' E 139°49'8 7.6
2014-Sep-16 20:33N 35°30' E 139°53'1211.5
2014-Sep-16 19:33N 35°20' E 139°44'1111.4
2014-Sep-16 18:33N 35°09' E 139°47'1311.5
2014-Sep-16 17:26N 34°56' E 139°44'1111.4
2014-Sep-16 16:28N 34°52' E 139°57'1011.2
2014-Sep-16 15:33N 34°57' E 140°07'2310.4
2014-Sep-16 13:23N 35°10' E 140°30'2612.5
2014-Sep-16 11:19N 35°31' E 140°49'  

Dump ship's entire track history